THORAD DELTA 1 DEB, 8164

Orbit data source: Space-Track

THORAD DELTA 1 DEB, 8164 is space debris in SSO originally from a launch on Fri, 15 Nov 1974 UTC launched from the Air Force Western Test Range (AFWTR). Debris objects in space refer to the collection of defunct objects orbiting the Earth. Examples of debris include non-operational satellites, rocket bodies, and fragments generated from explosions, collisions, or faulty payload assembly.

Loading next visibility...
Identifier
8164, 1974-089AE
Orbit
SSO
Country
Flag of USUS
Related business
Manufacturer
Unknown
Mission
Spacecraft
Bus & Motor
Unknown
Mass
Unknown
Launch date (UTC)
1974-11-15 (51 years ago)
Launch vehicle
Unknown
Launch site
Air Force Western Test Range (AFWTR)
Object type
Payload
Rocket body
Debris
Shape & HBR
Unknown shape, 0.3 m
Radar Cross Section
Medium (>0.1 m² and <1 m²)

Expand to show TLE details & history
Last TLE update: 13 hours ago

TLE from 13 hours ago
0 THORAD DELTA 1 DEB
1 08164U 74089AE  25303.83235561 -.00000015  00000-0  21777-3 0  9997
2 08164 101.6108  72.4672 0120941  57.6450  96.2352 12.28969775286436
Epoch: 2025-10-30T19:58Z
TLE epoch observation values (Epoch: 2025-10-30T19:58:35.524Z)
Latitude
24.23001°
Longitude
-81.2864°
Altitude
1,567.887 km
Speed
7.081 km/s
True Right ascension
17h 10m 59s
True Declination
24° 06' 53"
Sunlit
Object was in daylight at epoch
Visualization orbit readout
Latitude
Unknown
Longitude
Unknown
Altitude
Unknown
Speed
Unknown
Apparent Right ascension
Unknown
Apparent Declination
Unknown
Sunlit
N/A
Visualization observer readout
Local Sidereal Time
04:20:10
Azimuth
Unknown
Elevation
Unknown
Doppler factor
Unknown
Orbital elements
Apogee altitude
1,647.176 km
Perigee altitude
1,455.378 km
Semi-major axis
7,929.414 km
Eccentricity
0.01209
Inclination
101.6108°
RAAN
72.4672°
Arg. of periapsis
57.645°
True anomaly
97.61049°
Mean anomaly
96.2352°
Eccentric anomaly
96.92309°
Mean motion
3.07384 °/min
Orbital period
117.12 mins
BSTAR
0.00021777
Loading maneuver chart data...
Computing Atmospheric mass density...

Documentation

Showing up to 5 results
|